Location: Unspecified
(0.0000°N, 0.0000°E)
Time: 02:35:29
(UTC+00:00)

S-56A Canister/Altair - All Passes

Search period start: 02 August 2014 00:00
Search period end: 12 August 2014 00:00
Orbit: 633 x 2503 km, 38.9° (Epoch: 30 July)

Date Brightness Start Highest point End Pass type
(mag) Time Alt. Az. Time Alt. Az. Time Alt. Az.
02 Aug - 06:16:11 10° WNW 06:20:32 64° SW 06:25:28 10° SE daylight
02 Aug - 14:46:12 10° S 14:55:04 20° SE 15:04:47 10° ESE daylight
02 Aug - 16:48:26 10° SW 17:02:41 62° SE 17:17:00 10° ENE daylight
02 Aug - 18:55:12 10° WSW 19:09:39 51° NW 19:22:14 10° NNE visible
02 Aug - 21:10:50 10° WNW 21:16:48 14° NW 21:22:10 10° N visible
03 Aug - 05:44:05 10° NW 05:48:31 85° SW 05:53:15 10° SE daylight
03 Aug - 14:14:35 10° S 14:21:55 17° SE 14:30:01 10° ESE daylight
03 Aug - 16:15:52 10° SSW 16:29:31 55° SE 16:43:53 10° ENE daylight
03 Aug - 18:21:52 10° WSW 18:36:32 58° NW 18:49:51 10° NE visible
03 Aug - 20:35:30 10° WNW 20:43:45 17° NW 20:51:04 10° N visible
04 Aug - 05:11:59 10° NW 05:16:32 72° NE 05:21:03 10° SE visible
04 Aug - 13:43:28 10° S 13:48:48 13° SE 13:54:37 10° ESE daylight
04 Aug - 15:43:27 10° SSW 15:56:22 49° SE 16:10:35 10° ENE daylight
04 Aug - 17:48:43 10° WSW 18:03:23 65° NW 18:17:21 10° NE daylight
04 Aug - 20:00:45 10° W 20:10:41 21° NW 20:19:30 10° N visible
05 Aug - 04:39:53 10° NW 04:44:32 53° NE 04:48:51 10° ESE visible
05 Aug - 06:46:32 10° WSW 06:48:22 12° SW 06:50:17 10° S daylight
05 Aug - 13:14:15 10° SSE 13:15:43 10° SE 13:17:13 10° SE daylight
05 Aug - 15:11:10 10° SSW 15:23:16 43° SE 15:37:07 10° ENE daylight
05 Aug - 17:15:44 10° SW 17:30:12 73° NW 17:44:43 10° NE daylight
05 Aug - 19:26:24 10° W 19:37:34 25° NW 19:47:38 10° N visible
06 Aug - 04:07:47 10° NNW 04:12:30 40° NE 04:16:39 10° ESE visible
06 Aug - 06:13:31 10° WSW 06:16:10 15° SW 06:18:54 10° S daylight
06 Aug - 14:39:01 10° SSW 14:50:13 37° SE 15:03:26 10° ENE daylight
06 Aug - 16:42:53 10° SW 16:57:01 81° NW 17:11:57 10° NE daylight
06 Aug - 18:52:22 10° W 19:04:24 29° NW 19:15:34 10° NNE visible
07 Aug - 03:35:39 10° NNW 03:40:24 32° NE 03:44:25 10° ESE visible
07 Aug - 05:40:44 10° W 05:44:02 20° SW 05:47:20 10° S visible
07 Aug - 14:07:01 10° SSW 14:17:14 32° SE 14:29:33 10° E daylight
07 Aug - 16:10:12 10° SW 16:23:51 89° NW 16:39:03 10° NE daylight
07 Aug - 18:18:36 10° W 18:31:13 33° NW 18:43:20 10° NNE visible
08 Aug - 03:03:30 10° NNW 03:08:15 26° NE 03:12:09 10° E visible
08 Aug - 05:08:03 10° W 05:11:57 26° SW 05:15:41 10° SSE visible
08 Aug - 13:35:11 10° S 13:44:18 27° SE 13:55:25 10° E daylight
08 Aug - 15:37:39 10° SW 15:50:43 82° SE 16:06:01 10° NE daylight
08 Aug - 17:45:04 10° W 17:58:01 38° NW 18:10:57 10° NNE daylight
08 Aug - 20:05:21 10° NW 20:06:58 10° NNW 20:08:34 10° NNW visible
09 Aug - 02:31:19 10° NNW 02:36:01 22° NNE 02:39:50 10° E night (unlit)
09 Aug - 04:35:26 10° WNW 04:39:56 34° SW 04:43:58 10° SSE visible
09 Aug - 13:03:33 10° S 13:11:27 22° SE 13:21:02 10° E daylight
09 Aug - 15:05:14 10° SW 15:17:38 74° SE 15:32:51 10° NE daylight
09 Aug - 17:11:46 10° WSW 17:24:48 42° NW 17:38:26 10° NNE daylight
09 Aug - 19:28:05 10° NW 19:33:38 13° NNW 19:38:58 10° N visible
10 Aug - 01:59:05 10° NNW 02:03:42 20° NNE 02:07:27 10° ENE night (unlit)
10 Aug - 04:02:49 10° WNW 04:07:56 47° SW 04:12:12 10° SSE visible
10 Aug - 12:32:12 10° S 12:38:39 18° SE 12:46:19 10° ESE daylight
10 Aug - 14:32:57 10° SW 14:44:38 65° SE 14:59:32 10° ENE daylight
10 Aug - 16:38:40 10° WSW 16:51:35 48° NW 17:05:47 10° NNE daylight
10 Aug - 18:52:45 10° WNW 19:00:17 15° NNW 19:07:35 10° N visible
11 Aug - 01:26:49 10° N 01:31:20 17° NNE 01:35:00 10° ENE night (unlit)
11 Aug - 03:30:13 10° WNW 03:35:55 63° SW 03:40:24 10° SE visible
11 Aug - 12:01:24 10° SSE 12:05:53 13° SE 12:11:00 10° ESE daylight
11 Aug - 14:00:47 10° SSW 14:11:43 57° SE 14:26:05 10° ENE daylight
11 Aug - 16:05:45 10° WSW 16:18:23 53° NW 16:33:00 10° NNE daylight
11 Aug - 18:18:05 10° WNW 18:26:56 18° NNW 18:35:42 10° N visible
